Tracking 25710 objects as of 6-Jul-2022
HD Live streaming from Space Station
objects crossing your sky now

FENGYUN 1C DEB

Track FENGYUN 1C DEB now!
10-day predictions


NORAD ID: 32178
Int'l Code: 1999-025CTY
Perigee: 775.0 km
Apogee: 932.3 km
Inclination: 100.3 °
Period: 101.9 minutes
Semi major axis: 7224 km
RCS: 0.0128 m2 (small)
Launch date: May 10, 1999
Source: People's Republic of China (PRC)
Launch site: Taiyaun Space Center, China (TSC)

Note: This is SATELLITE DEBRIS
aabbcc
Your satellite tracking list
Your tracking list is empty




NASA's NSSDC Master Catalog

Two Line Element Set (TLE):
1 32178U 99025CTY 22186.16673040  .00000949  00000-0  50197-3 0  9999
2 32178 100.2975 333.8619 0108807 147.5603 213.2314 14.13765245461982
Source of the keplerian elements: AFSPC